FW1711 Weather Reports


Display with metric or nautical units.
time (UTC)temp
F
wind
direction
speed
MPH
gust
MPH
rain 1hr
in
rain 24hr
in
rain mn
in
humidity
%
barometer
mb
20260505231551 56 319 0.0 1.0 0.09 0.83 0.13 88 989.0
20260505230041 56 319 0.0 1.0 0.09 0.80 0.09 88 989.6
20260505224542 56 319 0.0 1.0 0.09 0.78 0.07 87 989.8
20260505223043 56 258 0.0 3.0 0.10 0.75 0.04 87 990.1
20260505221544 56 326 0.0 3.0 0.21 0.74 0.03 86 989.8
20260505220039 56 320 1.0 9.0 0.38 0.71 0.00 85 990.1
20260505214551 56 296 2.0 11.0 0.38 0.69 0.69 83 990.1
20260505213048 57 324 1.0 8.0 0.54 0.65 0.65 81 990.2
20260505211530 59 9 0.0 8.0 0.41 0.51 0.51 80 990.5
20260505210031 61 331 0.0 1.0 0.28 0.33 0.33 83 989.8
20260505204532 61 331 0.0 0.0 0.31 0.31 0.31 82 989.7
20260505203028 62 134 0.0 0.0 0.10 0.11 0.11 81 989.8
20260505201542 62 134 0.0 0.0 0.09 0.10 0.10 79 989.4
20260505200028 62 134 0.0 0.0 0.04 0.05 0.05 78 989.7
20260505194524 62 132 0.0 0.0 0.00 0.01 0.01 76 989.8
20260505193040 63 132 0.0 1.0 0.00 0.01 0.01 76 989.5
20260505191524 63 123 0.0 1.0 0.00 0.01 0.01 75 989.6
20260505190030 63 123 0.0 1.0 0.00 0.01 0.01 75 989.5
20260505184525 63 165 0.0 1.0 0.00 0.01 0.01 74 989.7
20260505183036 64 165 0.0 0.0 0.00 0.01 0.01 74 989.8
20260505181521 64 165 0.0 0.0 0.00 0.01 0.01 73 990.0
20260505180031 65 165 0.0 0.0 0.00 0.01 0.01 72 990.1
20260505174527 65 165 0.0 1.0 0.00 0.01 0.01 71 990.1
20260505173017 66 165 0.0 1.0 0.00 0.01 0.01 70 990.2
20260505171526 66 134 0.0 2.0 0.00 0.01 0.01 68 990.1
20260505170015 67 134 0.0 1.0 0.00 0.01 0.01 68 990.2
20260505164528 67 134 0.0 2.0 0.00 0.01 0.01 67 990.4
20260505163018 67 126 0.0 0.0 0.00 0.01 0.01 67 990.3
20260505161512 68 126 0.0 0.0 0.00 0.01 0.01 68 990.5
20260505153011 69 126 0.0 0.0 0.00 0.01 0.01 66 990.6
20260505151508 69 126 0.0 0.0 0.00 0.01 0.01 66 990.7
20260505124607 74 165 0.0 1.0 0.00 0.01 0.01 61 991.3
20260505123113 74 142 0.0 2.0 0.00 0.01 0.01 60 991.4
20260505121559 75 195 0.0 2.0 0.00 0.01 0.01 56 991.4
20260505120057 75 210 0.0 2.0 0.00 0.01 0.01 52 991.5
20260505114602 75 256 0.0 2.0 0.00 0.01 0.01 54 991.6
20260505113055 75 50 0.0 0.0 0.00 0.01 0.01 52 991.7
20260505111558 75 50 0.0 3.0 0.00 0.01 0.01 55 991.8
20260505101539 73 233 0.0 0.0 0.00 0.01 0.01 61 992.3
20260505100034 72 233 0.0 1.0 0.00 0.01 0.01 58 992.4
20260505094531 71 127 0.0 2.0 0.00 0.01 0.01 61 992.4
20260505093034 71 159 0.0 2.0 0.00 0.01 0.01 63 992.7
20260505091533 70 159 0.0 1.0 0.00 0.01 0.01 63 992.8
20260505090039 68 306 0.0 1.0 0.00 0.01 0.01 68 992.8
20260505084522 66 311 0.0 0.0 0.00 0.01 0.01 72 992.8
20260505083015 66 311 0.0 0.0 0.00 0.01 0.01 73 992.8
20260505081516 65 311 0.0 1.0 0.00 0.01 0.01 71 993.0
20260505080009 64 304 0.0 2.0 0.00 0.01 0.01 76 993.2
20260505074508 62 304 0.0 2.0 0.00 0.01 0.01 81 993.5
20260505073013 61 305 0.0 1.0 0.00 0.01 0.01 83 993.6
20260505071508 60 305 0.0 0.0 0.01 0.01 0.01 83 993.6
20260505070005 59 305 0.0 1.0 0.01 0.01 0.01 83 993.6
20260505064504 59 305 0.0 0.0 0.01 0.01 0.01 82 993.5
20260505063005 59 305 0.0 0.0 0.01 0.01 0.01 81 993.5
20260505061509 59 305 0.0 0.0 0.00 0.00 0.00 80 993.8
20260505060003 59 305 0.0 1.0 0.00 0.00 0.00 79 993.9
20260505054502 59 305 0.0 1.0 0.00 0.00 0.00 79 993.8
20260505053000 58 305 0.0 1.0 0.00 0.00 0.00 80 993.5
20260505051559 58 305 0.0 1.0 0.00 0.00 0.00 78 993.5
20260505050126 58 305 0.0 0.0 0.00 0.00 0.00 77 993.2
20260505041604 57 305 0.0 0.0 0.00 0.00 0.00 75 993.1
20260505040058 57 305 0.0 0.0 0.00 0.00 0.00 75 993.2
20260505034550 57 305 0.0 0.0 0.00 0.00 0.00 74 993.3
20260505033050 58 305 0.0 0.0 0.00 0.00 0.00 74 993.4
20260505031548 58 305 0.0 0.0 0.00 0.00 0.00 74 993.5
20260505030044 58 305 0.0 0.0 0.00 0.00 0.00 73 993.6
20260505024542 59 305 0.0 0.0 0.00 0.00 0.00 73 993.7
20260505023045 59 305 0.0 0.0 0.00 0.00 0.00 73 993.9
20260505021542 59 305 0.0 0.0 0.00 0.00 0.00 73 994.1
20260505020038 59 305 0.0 0.0 0.00 0.00 0.00 73 994.2
20260505014556 60 305 0.0 0.0 0.00 0.00 0.00 73 994.2
20260505013039 60 305 0.0 0.0 0.00 0.00 0.00 72 994.3
20260505011533 60 305 0.0 0.0 0.00 0.00 0.00 72 994.5
20260505010031 60 305 0.0 0.0 0.00 0.00 0.00 71 994.5
20260505004536 60 305 0.0 0.0 0.00 0.00 0.00 71 994.7
20260505003027 60 305 0.0 0.0 0.00 0.00 0.00 71 994.9
20260505001527 60 305 0.0 0.0 0.00 0.00 0.00 71 995.1
20260505000030 60 305 0.0 0.0 0.00 0.00 0.00 71 995.2
20260504234524 61 305 0.0 0.0 0.00 0.00 0.00 70 995.2
20260504233023 61 305 0.0 0.0 0.00 0.00 0.00 70 995.3